Regional Weather Roundup
Issued by NWS

Home | Current Version | Previous Version | Graphics & Text | Print | Product List | Glossary On
Versions: 1 2 3 4 5 6 7 8 9 10 11 12 13 14 15 16 17 18 19 20 21 22 23 24 25 26 27 28 29 30 31 32 33 34 35 36 37 38 39 40 41 42 43 44 45 46 47 48 49 50
000
ASUS44 KMEG 240710
RWRTN
TENNESSEE HOURLY STATE WEATHER ROUNDUP
NATIONAL WEATHER SERVICE MEMPHIS TN
200 AM CDT SUN JUL 24 2016

TNZ002-004-019-021-049-052-054-088>092-240800-
WEST TENNESSEE

CITY           SKY/WX    TMP DP  RH WIND       PRES   REMARKS
MEMPHIS INTL   CLOUDY    79  71  76 CALM      29.95S
NWS MEMPHIS      N/A     76 N/A N/A MISG        N/A
JACKSON        CLOUDY    76  75  97 S3        29.96F
DYERSBURG      CLOUDY   N/A N/A N/A MISG        N/A
UNION CITY     CLEAR     75  75 100 CALM      29.94F
PARIS          CLEAR     73  72  94 CALM      29.98R
LEXINGTON      CLEAR     75  75 100 CALM      29.97S
$$

TNZ008-025-027-028-033-062-065-066-240800-
NORTH MIDDLE TENNESSEE

CITY           SKY/WX    TMP DP  RH WIND       PRES   REMARKS
NASHVILLE      PTCLDY    74  70  87 S3        30.00S
CLARKSVILLE    CLEAR     76  73  91 SE5       29.98R
SMYRNA         CLEAR     73  71  93 CALM      30.01S
COOKEVILLE     CLEAR     72  70  94 CALM      30.02S
CROSSVILLE     CLEAR     69  68  96 CALM      30.08F
$$

TNZ061-075-076-078-094-096-097-240800-
SOUTH MIDDLE TENNESSEE

CITY           SKY/WX    TMP DP  RH WIND       PRES   REMARKS
FAYETTEVILLE   CLEAR     73  72  94 CALM      30.02F
TULLAHOMA      CLEAR     72  72 100 CALM      30.04S
WINCHESTER     CLEAR     72  72 100 SE6       30.03S
MCMINNVILLE    MOCLDY    72  72 100 CALM      30.03S VSB 1/2
COLUMBIA       CLEAR    N/A N/A N/A CALM      29.99F
SHELBYVILLE    CLEAR     73  73 100 CALM      30.02S
$$

TNZ017-018-042-046-047-240800-
NORTHEAST TENNESSEE

CITY           SKY/WX    TMP DP  RH WIND       PRES   REMARKS
TRI CITIES     CLEAR     70  68  93 N3        30.07F
ELIZABETHTON   PTCLDY    70  68  94 CALM      30.08S
$$

TNZ012-013-036-069-073-074-240800-
CENTRAL EAST TENNESSEE

CITY           SKY/WX    TMP DP  RH WIND       PRES   REMARKS
KNOXVILLE      PTCLDY    73  70  90 CALM      30.03F
OAK RIDGE      MOCLDY    74  71  91 CALM      30.05S
GATLINBURG     CLEAR     70  66  88 SE3       30.04F
MORRISTOWN     PTCLDY    72  70  94 CALM      30.05F
$$

TNZ083-085-099-240800-
SOUTHEAST TENNESSEE

CITY           SKY/WX    TMP DP  RH WIND       PRES   REMARKS
CHATTANOOGA    CLEAR     77  71  82 CALM      30.03S
$$

SKY/WX REPORTED AS FAIR MEANS FEW OR NO CLOUDS BELOW
12 THOUSAND FEET.





USA.gov is the U.S. government's official web portal to all federal, state and local government web resources and services.